Simultaneous Nadir Overpasses (SNOs) Predictions

Prediction of SNOs between METOP-C and LANDSAT-8 Satellite Orbit:

Table of predicted SNOs for the next 14.0 days since TLE Epoch: 1/6/2025
Index Date (METOP-C) Time (METOP-C) Lat,Lon (METOP-C) SZA (METOP-C ) Date (LANDSAT-8) Time (LANDSAT-8) Lat,Lon (LANDSAT-8) SZA (LANDSAT-8 ) Distance(km) Time Diff (sec)
1 01/08/2025 04:49:50 81.10, 146.73 105.02 01/08/2025 04:50:50 81.10, 146.71 105.04 0.54 60
2 01/08/2025 05:40:29 -81.12, -45.38 74.92 01/08/2025 05:40:16 -81.12, -45.35 74.93 0.64 13
3 01/11/2025 00:24:08 81.10,-146.85 104.58 01/11/2025 00:25:05 81.11,-146.74 104.62 1.89 57
4 01/11/2025 01:14:47 -81.12, 21.05 75.36 01/11/2025 01:14:31 -81.13, 21.22 75.35 2.89 16
5 01/13/2025 19:58:24 81.11, -80.21 104.12 01/13/2025 19:59:18 81.10, -80.34 104.12 2.37 54
6 01/13/2025 20:49:03 -81.13, 87.70 75.83 01/13/2025 20:48:44 -81.12, 87.64 75.84 1.20 19
7 01/16/2025 15:32:41 81.11, -13.73 103.58 01/16/2025 15:33:30 81.11, -13.73 103.60 0.29 49
8 01/16/2025 16:23:20 -81.13, 154.18 76.36 01/16/2025 16:22:56 -81.14, 154.26 76.36 1.44 24
9 01/19/2025 11:06:58 81.11, 52.58 102.97 01/19/2025 11:07:41 81.11, 52.73 103.01 2.70 43



Historial Predications of SNOs between METOP-C and LANDSAT-8
